Home > Weather > Fort St. John > Past weeks

Flag for Canada Past Weather in Fort St. John, British Columbia, Canada — Yesterday and Last 2 Weeks

Now
45 °F

Partly cloudy.


Feels Like: 40 °F
Forecast: 41 / 46 °F
Wind: 8 mph from Northeast

Location: Fort St John

Current Time: Aug 28, 2016 at 10:43:30 PM

Latest Report: Aug 28, 2016 at 10:00 PM


Visibility: 15 mi

Pressure: 30.24 "Hg (27.80 "Hg at 689m altitude)

Humidity: 76%

Dew Point: 37 °F

Location of Fort St. JohnLocation

Past Weather in Fort St. John — Graph

°F

Fort St. John Temperature Yesterday

Maximum temperature yesterday: 59 °F (at 12:00 AM)
Minimum temperature yesterday: 43 °F (at 1:00 PM)
Average temperature yesterday: 50 °F

High & Low Weather Summary for the Past Weeks

 TemperatureHumidityPressure
High81 °F (Aug 15, 3:00 PM)100% (Aug 20, 10:00 PM)30.40 "Hg (Aug 20, 10:00 PM)
Low36 °F (Aug 28, 5:00 AM)25% (Aug 16, 5:00 PM)29.50 "Hg (Aug 27, 2:55 AM)
Average60 °F67%30.03 "Hg
* Reported Aug 13 9:00 PM — Aug 28 9:00 PM, Fort St. John, Weather by CustomWeather, © 2016

Note: Actual official high and low records may vary slightly from our data, if they occured in-between our weather recording intervals... More about our weather records

Advertising

Fort St. John Weather History for the Previous 24 Hours

Scroll right to see more
 ConditionsComfort  
Time TempWeatherWind HumidityBarometerVisibility
9:00 PM
Sun, Aug 28
46 °FPartly sunny.6 mph71%30.24 "Hg15 mi
8:00 PM46 °FPartly sunny.3 mph71%30.24 "Hg15 mi
7:00 PM50 °FPartly sunny.5 mph58%30.24 "Hg15 mi
6:00 PM50 °FPartly sunny.5 mph58%30.24 "Hg15 mi
5:00 PM50 °FPartly sunny.No wind58%30.24 "Hg15 mi
4:00 PM50 °FPartly sunny.3 mph58%30.24 "Hg15 mi
3:00 PM52 °FPartly sunny.10 mph58%30.23 "Hg15 mi
2:00 PM50 °FScattered showers. Partly sunny.6 mph62%30.24 "Hg15 mi
1:00 PM46 °FSprinkles. Partly sunny.8 mph71%30.25 "Hg15 mi
12:52 PM48 °FSprinkles. Partly sunny.13 mph62%30.24 "Hg15 mi
12:00 PM46 °FSprinkles. Partly sunny.2 mph71%30.25 "Hg15 mi
11:00 AM46 °FPartly sunny.8 mph71%30.25 "Hg15 mi
10:00 AM45 °FPartly sunny.8 mph81%30.26 "Hg15 mi
9:00 AM43 °FPartly sunny.8 mph87%30.26 "Hg15 mi
8:00 AM41 °FScattered clouds.6 mph87%30.25 "Hg15 mi
7:00 AM37 °FScattered clouds.5 mph93%30.25 "Hg15 mi
6:00 AM36 °FPassing clouds.10 mph93%30.24 "Hg15 mi
5:00 AM36 °FPassing clouds.7 mph93%30.23 "Hg15 mi
4:00 AM39 °FOvercast.9 mph93%30.22 "Hg15 mi
3:00 AM41 °FOvercast.10 mph87%30.21 "Hg15 mi
2:00 AM41 °FOvercast.7 mph87%30.20 "Hg15 mi
1:00 AM43 °FMostly cloudy.9 mph87%30.17 "Hg15 mi
12:00 AM43 °FMostly cloudy.7 mph93%30.16 "Hg15 mi
11:00 PM
Sat, Aug 27
45 °FMostly cloudy.15 mph87%30.13 "Hg15 mi
10:00 PM45 °FOvercast.14 mph87%30.11 "Hg15 mi
Weather by CustomWeather, © 2016

See weather overviewHow to use our weather pages